Home   Weather   Hilo   Past weeks

Flag for USA Past Weather in Hilo, Hawaii, USA — Yesterday and Last 2 Weeks

Now
70 °F

Passing clouds.


Feels Like: 64 °F
Forecast: 69 / 74 °F
Wind: No wind

Location: Hilo International Airport

Current Time: Dec 3, 2016 at 10:21:54 pm

Latest Report: Dec 3, 2016 at 9:53 pm


Visibility: 7 mi

Pressure: 29.88 "Hg

Humidity: 97%

Dew Point: 69 °F

Location of HiloLocation

Past Weather in Hilo — Graph

°F

Hilo Temperature Yesterday

Maximum temperature yesterday: 73 °F (at 9:24 am)
Minimum temperature yesterday: 66 °F (at 12:16 am)
Average temperature yesterday: 69 °F

High & Low Weather Summary for the Past Weeks

 TemperatureHumidityPressure
High82 °F (Nov 19, 12:53 pm)100% (Nov 21, 8:10 am)30.18 "Hg (Nov 21, 8:10 am)
Low64 °F (Dec 1, 6:00 am)58% (Nov 26, 12:53 pm)29.79 "Hg (Dec 3, 3:53 pm)
Average71 °F87%30.06 "Hg
* Reported Nov 18 9:53 pm — Dec 3 9:10 pm, Hilo, Weather by CustomWeather, © 2016

Note: Actual official high and low records may vary slightly from our data, if they occured in-between our weather recording intervals... More about our weather records

Advertising

Hilo Weather History for the Previous 24 Hours

Scroll right to see more
 ConditionsComfort  
Time TempWeatherWind HumidityBarometerVisibility
9:10 pm
Sat, Dec 3
72 °FPassing clouds.No wind94%29.89 "Hg9 mi
8:53 pm72 °FPassing clouds.No wind91%29.88 "Hg10 mi
7:53 pm71 °FPassing clouds.No wind96%29.88 "Hg10 mi
7:00 pm72 °FPassing clouds.5 mph94%29.86 "Hg10 mi
6:53 pm73 °FPassing clouds.3 mph94%29.85 "Hg10 mi
5:53 pm73 °FOvercast.6 mph94%29.83 "Hg10 mi
5:45 pm73 °FPassing clouds.6 mph94%29.84 "Hg10 mi
4:53 pm76 °FScattered clouds.No wind85%29.79 "Hg10 mi
3:53 pm75 °FScattered clouds.3 mph88%29.79 "Hg10 mi
2:53 pm75 °FPartly sunny.No wind88%29.80 "Hg9 mi
2:45 pm73 °FMostly cloudy.3 mph89%29.82 "Hg10 mi
1:53 pm72 °FLight rain. Overcast.7 mph93%29.82 "Hg9 mi
12:53 pm72 °FLight rain. Partly sunny.9 mph93%29.84 "Hg7 mi
11:53 am72 °FLight rain. Overcast.7 mph93%29.87 "Hg10 mi
11:24 am72 °FLight rain. Fog.5 mph100%29.89 "Hg6 mi
11:00 am73 °FBroken clouds.3 mph97%29.90 "Hg10 mi
10:27 am72 °FRain. Fog.9 mph100%29.91 "Hg2 mi
10:04 am72 °FRain. Fog.3 mph100%29.91 "Hg2 mi
9:29 am73 °FMostly cloudy.8 mph89%29.92 "Hg10 mi
9:12 am72 °FBroken clouds.5 mph94%29.91 "Hg10 mi
8:53 am71 °FPartly sunny.6 mph93%29.91 "Hg10 mi
8:33 am70 °FLight rain. Fog.5 mph100%29.92 "Hg2 mi
8:05 am70 °FHeavy rain. Fog.7 mph94%29.92 "Hg1 mi
7:56 am70 °FHeavy rain. Fog.7 mph93%29.91 "Hg1 mi
6:53 am69 °FMostly cloudy.8 mph93%29.90 "Hg10 mi
5:53 am68 °FOvercast.5 mph93%29.89 "Hg10 mi
5:19 am66 °FLight rain. Mostly cloudy.6 mph100%29.90 "Hg7 mi
4:53 am67 °FLight rain. Fog.6 mph97%29.90 "Hg3 mi
4:33 am66 °FRain. Fog.5 mph100%29.90 "Hg2 mi
3:53 am67 °FLight rain. Fog.5 mph97%29.90 "Hg4 mi
3:00 am68 °FMostly cloudy.6 mph90%29.89 "Hg10 mi
2:08 am68 °FHeavy rain. Fog.6 mph94%29.92 "Hg2 mi
1:53 am68 °FLight rain. Mostly cloudy.8 mph93%29.91 "Hg9 mi
1:21 am66 °FLight rain. Fog.8 mph94%29.93 "Hg3 mi
11:53 pm
Fri, Dec 2
67 °FMostly cloudy.6 mph93%29.94 "Hg10 mi
10:53 pm67 °FClear.No wind93%29.95 "Hg10 mi
10:02 pm68 °FPassing clouds.5 mph94%29.96 "Hg10 mi
Weather by CustomWeather, © 2016

See weather overviewHow to use our weather pages